PhpDig
Rechercher sur le site
afficher résultats
Début de mot  Mot entier  Partie de mot 
Sélectionnez une adresse: Restart

Veuillez renseigner le formulaire de recherche.

94561 searches: 85333 with results, 9228 with no results.
— Total - lists the total number of searches for each query
— Query - lists the various keywords for each search query
— Mode - lists the "and, exact, or" search mode per query
— Links - lists the average number of links found per query
— Time - lists the most recent GMT timestamp of each query
Listing 1 to 20 of 620. Page 1 of 31.
Au total Query Mode Links Temps
150 bureau exact 10 2021-04-22 17:45:56
123 viola and 8 2021-04-22 11:57:51
127 taoisme exact 15 2021-04-22 11:57:47
128 diabete and 1 2021-04-22 00:39:34
126 systeme chaotique and 3 2021-04-20 22:10:18
139 scam and 1 2021-04-20 22:10:15
136 rosee and 7 2021-04-20 22:10:10
163 roi l'oiseau and 2 2021-04-20 22:10:04
25 peuple d'agharta and 1 2021-04-20 22:10:01
161 laurel and 3 2021-04-20 22:09:59
128 koilon and 2 2021-04-20 22:09:57
38 gendarme marie or 12 2021-04-20 22:09:54
139 fullmetal alchemist partitions and 4 2021-04-20 22:09:52
113 effet placebo moyen age and 1 2021-04-20 22:09:51
314 cyliani and 4 2021-04-20 22:09:49
85 analogie exact 8 2021-04-20 22:09:47
8 voie humide and 4 2021-04-20 08:43:37
124 survivants and 2 2021-04-20 08:43:33
276 lorsque and 60 2021-04-20 08:43:29
302 cor anglais audio or 191 2021-04-20 08:43:26
1 2 3 4 5 6 | > | >>
Powered by PhpDig


Powered by PhpDig
Powered by PhpDig